This is the latest recevied weather packets stored in our database for station/object KK6LZB. If no packets are shown the sender has not sent any weather packets the latest 10 day(s).
| Time | Temp. | Humidity | Pressure | Rain* | Wind** | Luminosity | Snow |
|---|---|---|---|---|---|---|---|
| 1777937348 | 18.33° C | 70% | 1017.1 hPa | 0 mm | - | 184 W/m² | - |
| 1777937044 | 18.33° C | 69% | 1017 hPa | 0 mm | - | 171 W/m² | - |
| 1777936741 | 19.44° C | 66% | 1017 hPa | 0 mm | - | 331 W/m² | - |
| 1777936438 | 19.44° C | 66% | 1017 hPa | 0 mm | - | 204 W/m² | - |
| 1777936134 | 19.44° C | 66% | 1016.8 hPa | 0 mm | - | 271 W/m² | - |
| 1777935832 | 18.33° C | 68% | 1016.8 hPa | 0 mm | - | 631 W/m² | - |
| 1777935530 | 18.33° C | 70% | 1017 hPa | 0 mm | - | 286 W/m² | - |
| 1777935226 | 18.33° C | 68% | 1016.9 hPa | 0 mm | - | 440 W/m² | - |
| 1777934924 | 18.33° C | 68% | 1017.1 hPa | 0 mm | - | 329 W/m² | - |
| 1777934620 | 18.33° C | 71% | 1017.1 hPa | 0 mm | - | 334 W/m² | - |
| 1777934317 | 18.33° C | 71% | 1017.1 hPa | 0 mm | - | 286 W/m² | - |
| 1777934013 | 18.33° C | 70% | 1017.2 hPa | 0 mm | - | 285 W/m² | - |
| 1777933710 | 18.33° C | 70% | 1017.2 hPa | 0 mm | - | 381 W/m² | - |
| 1777933406 | 18.33° C | 68% | 1017.2 hPa | 0 mm | - | 295 W/m² | - |
| 1777933105 | 18.89° C | 70% | 1017.4 hPa | 0 mm | - | 338 W/m² | - |
| 1777932801 | 18.33° C | 65% | 1017.4 hPa | 0 mm | - | 449 W/m² | - |
| 1777932499 | 18.33° C | 69% | 1017.3 hPa | 0 mm | - | 304 W/m² | - |
| 1777932195 | 18.89° C | 67% | 1017.5 hPa | 0 mm | - | 327 W/m² | - |
| 1777931893 | 18.89° C | 70% | 1017.6 hPa | 0 mm | - | 312 W/m² | - |
| 1777931589 | 18.89° C | 66% | 1017.7 hPa | 0 mm | - | 337 W/m² | - |
| 1777931285 | 20° C | 65% | 1017.6 hPa | 0 mm | - | 396 W/m² | - |
| 1777930982 | 20° C | 62% | 1017.8 hPa | 0 mm | - | 460 W/m² | - |
| 1777930678 | 20° C | 64% | 1017.6 hPa | 0 mm | - | 495 W/m² | - |
| 1777930374 | 19.44° C | 63% | 1017.7 hPa | 0 mm | - | 507 W/m² | - |
| 1777930072 | 20.56° C | 61% | 1017.7 hPa | 0 mm | - | 585 W/m² | - |
* Rain latest hour (hover to see other rain measurements)
** Current wind speed in m/s (hover to see current wind gust speed)